Regional Weather Roundup
Issued by NWS

Home | Current Version | Previous Version | Text Only | Print | Product List | Glossary Off
Versions: 1 2 3 4 5 6 7 8 9 10 11 12 13 14 15 16 17 18 19 20 21 22 23 24 25 26 27 28 29 30 31 32 33 34 35 36 37 38 39 40 41 42 43 44 45 46 47 48 49 50

000
ASUS43 KFSD 222310
RWRSD

WEATHER ROUNDUP FOR SOUTH DAKOTA
NATIONAL WEATHER SERVICE SIOUX FALLS SD
600 PM CDT FRI JUL 22 2016

NOTE: "FAIR" INDICATES FEW OR NO CLOUDS BELOW 12,000 FEET WITH NO
SIGNIFICANT WEATHER AND/OR OBSTRUCTIONS TO VISIBILITY.


SDZ001>005-009-010-012>017-230000-
NORTHWEST AND NORTH CENTRAL SOUTH DAKOTA

CITY           SKY/WX    TMP DP  RH WIND       PRES   REMARKS
BUFFALO          N/A     75  58  55 N22G30    29.90R
FAITH            N/A    103  51  17 S25G35    29.85F HX 100
MOBRIDGE       CLOUDY    83  62  49 SE21      29.86F
$$

SDZ012>016-024>037-041>051-057-063-072>074-230000-
SOUTHWEST AND SOUTH CENTRAL SOUTH DAKOTA

CITY           SKY/WX    TMP DP  RH WIND       PRES   REMARKS
RAPID CTY ARPT CLOUDY    89  52  28 S17       29.93F
PIERRE         CLOUDY    88  66  48 E29G43    29.89F
CUSTER         CLOUDY    76  48  37 VRB7G18   30.16F
ELLSWORTH AFB  PTSUNNY   91  53  27 S23G31    29.93F
PHILIP         CLOUDY    98  62  30 S12       29.88F HX  99
PINE RIDGE     LGT RAIN  77  63  61 W20G37    30.08R
WINNER         FAIR      95  72  47 E9        29.94F HX 103
$$

SDZ004>011-016>023-039-040-230000-
NORTHEAST SOUTH DAKOTA

CITY           SKY/WX    TMP DP  RH WIND       PRES   REMARKS
ABERDEEN       CLOUDY    85  75  72 NE8       29.92F
WATERTOWN      CLOUDY    85  65  51 E8        30.02F
BROOKINGS      MOSUNNY   88  76  67 NE13      30.00F HX  99
SISSETON         N/A     82  66  58 SE5       29.94F
$$

SDZ017-020-022-023-036>040-048>070-230000-
SOUTHEAST SOUTH DAKOTA

CITY           SKY/WX    TMP DP  RH WIND       PRES   REMARKS
SIOUX FALLS    CLOUDY    90  79  70 NE15      29.96S HX 106
HURON          CLOUDY    91  74  57 E15G22    29.93F HX 100
CHAMBERLAIN    MOSUNNY   96  76  53 E15G22    29.93S HX 109
MITCHELL       MOSUNNY   93  77  59 E17G25    29.94F HX 107
YANKTON        MOSUNNY   91  81  70 E9        29.90S HX 110
$$

ABBREVIATIONS USED IN REMARKS
   TC - TEMPERATURE IN CELSIUS
  WCI - WIND CHILL INDEX
   HX - HEAT INDEX
  VSB - VISIBILITY





USA.gov is the U.S. government's official web portal to all federal, state and local government web resources and services.